Year,Month,Day,Hour,Minute,Value (Times are PST for temperature in C)
2010,08,13,00,00,15.30
2010,08,13,00,01,15.30
2010,08,13,00,02,15.30
2010,08,13,00,03,15.30
2010,08,13,00,04,15.20
2010,08,13,00,05,15.20
2010,08,13,00,06,15.20
2010,08,13,00,07,15.20
2010,08,13,00,08,15.20
2010,08,13,00,09,15.20
2010,08,13,00,10,15.10
2010,08,13,00,11,15.10
2010,08,13,00,12,15.10
2010,08,13,00,13,15.10
2010,08,13,00,14,15.00
2010,08,13,00,15,15.00
2010,08,13,00,16,15.00
2010,08,13,00,17,14.90
2010,08,13,00,18,14.90
2010,08,13,00,19,14.90
2010,08,13,00,20,14.90
2010,08,13,00,21,14.80
2010,08,13,00,22,14.80
2010,08,13,00,23,14.80
2010,08,13,00,24,14.80
2010,08,13,00,25,14.80
2010,08,13,00,26,14.80
2010,08,13,00,27,14.80
2010,08,13,00,28,14.80
2010,08,13,00,29,14.80
2010,08,13,00,30,14.80
2010,08,13,00,31,14.80
2010,08,13,00,32,14.80
2010,08,13,00,33,14.70
2010,08,13,00,34,14.70
2010,08,13,00,35,14.70
2010,08,13,00,36,14.70
2010,08,13,00,37,14.70
2010,08,13,00,38,14.70
2010,08,13,00,39,14.70
2010,08,13,00,40,14.60
2010,08,13,00,41,14.60
2010,08,13,00,42,14.60
2010,08,13,00,43,14.60
2010,08,13,00,44,14.60
2010,08,13,00,45,14.60
2010,08,13,00,46,14.50
2010,08,13,00,47,14.50
2010,08,13,00,48,14.50
2010,08,13,00,49,14.50
2010,08,13,00,50,14.40
2010,08,13,00,51,14.40
2010,08,13,00,52,14.40
2010,08,13,00,53,14.40
2010,08,13,00,54,14.40
2010,08,13,00,55,14.40
2010,08,13,00,56,14.40
2010,08,13,00,57,14.50
2010,08,13,00,58,14.50
2010,08,13,00,59,14.50
2010,08,13,01,00,14.50
2010,08,13,01,01,14.50
2010,08,13,01,02,14.40
2010,08,13,01,03,14.40
2010,08,13,01,04,14.40
2010,08,13,01,05,14.40
2010,08,13,01,06,14.40
2010,08,13,01,07,14.40
2010,08,13,01,08,14.40
2010,08,13,01,09,14.40
2010,08,13,01,10,14.40
2010,08,13,01,11,14.40
2010,08,13,01,12,14.40
2010,08,13,01,13,14.40
2010,08,13,01,14,14.30
2010,08,13,01,15,14.30
2010,08,13,01,16,14.30
2010,08,13,01,17,14.30
2010,08,13,01,18,14.30
2010,08,13,01,19,14.30
2010,08,13,01,20,14.30
2010,08,13,01,21,14.30
2010,08,13,01,22,14.30
2010,08,13,01,23,14.30
2010,08,13,01,24,14.30
2010,08,13,01,25,14.30
2010,08,13,01,26,14.30
2010,08,13,01,27,14.30
2010,08,13,01,28,14.30
2010,08,13,01,29,14.30
2010,08,13,01,30,14.30
2010,08,13,01,31,14.20
2010,08,13,01,32,14.20
2010,08,13,01,33,14.20
2010,08,13,01,34,14.20
2010,08,13,01,35,14.20
2010,08,13,01,36,14.20
2010,08,13,01,37,14.20
2010,08,13,01,38,14.20
2010,08,13,01,39,14.20
2010,08,13,01,40,14.10
2010,08,13,01,41,14.10
2010,08,13,01,42,14.10
2010,08,13,01,43,14.10
2010,08,13,01,44,14.10
2010,08,13,01,45,14.10
2010,08,13,01,46,14.10
2010,08,13,01,47,14.10
2010,08,13,01,48,14.00
2010,08,13,01,49,14.00
2010,08,13,01,50,14.00
2010,08,13,01,51,13.90
2010,08,13,01,52,13.90
2010,08,13,01,53,13.90
2010,08,13,01,54,13.90
2010,08,13,01,55,13.90
2010,08,13,01,56,13.90
2010,08,13,01,57,13.80
2010,08,13,01,58,13.80
2010,08,13,01,59,13.80
2010,08,13,02,00,13.80
2010,08,13,02,01,13.80
2010,08,13,02,02,13.70
2010,08,13,02,03,13.70
2010,08,13,02,04,13.70
2010,08,13,02,05,13.70
2010,08,13,02,06,13.70
2010,08,13,02,07,13.70
2010,08,13,02,08,13.70
2010,08,13,02,09,13.70
2010,08,13,02,10,13.60
2010,08,13,02,11,13.60
2010,08,13,02,12,13.60
2010,08,13,02,13,13.60
2010,08,13,02,14,13.60
2010,08,13,02,15,13.60
2010,08,13,02,16,13.60
2010,08,13,02,17,13.60
2010,08,13,02,18,13.60
2010,08,13,02,19,13.60
2010,08,13,02,20,13.60
2010,08,13,02,21,13.60
2010,08,13,02,22,13.60
2010,08,13,02,23,13.60
2010,08,13,02,24,13.60
2010,08,13,02,25,13.60
2010,08,13,02,26,13.70
2010,08,13,02,27,13.60
2010,08,13,02,28,13.70
2010,08,13,02,29,13.70
2010,08,13,02,30,13.70
2010,08,13,02,31,13.70
2010,08,13,02,32,13.70
2010,08,13,02,33,13.70
2010,08,13,02,34,13.70
2010,08,13,02,35,13.70
2010,08,13,02,36,13.70
2010,08,13,02,37,13.70
2010,08,13,02,38,13.70
2010,08,13,02,39,13.70
2010,08,13,02,40,13.70
2010,08,13,02,41,13.70
2010,08,13,02,42,13.70
2010,08,13,02,43,13.70
2010,08,13,02,44,13.70
2010,08,13,02,45,13.70
2010,08,13,02,46,13.70
2010,08,13,02,47,13.70
2010,08,13,02,48,13.70
2010,08,13,02,49,13.70
2010,08,13,02,50,13.70
2010,08,13,02,51,13.70
2010,08,13,02,52,13.70
2010,08,13,02,53,13.70
2010,08,13,02,54,13.70
2010,08,13,02,55,13.60
2010,08,13,02,56,13.60
2010,08,13,02,57,13.60
2010,08,13,02,58,13.60
2010,08,13,02,59,13.50
2010,08,13,03,00,13.50
2010,08,13,03,01,13.50
2010,08,13,03,02,13.40
2010,08,13,03,03,13.40
2010,08,13,03,04,13.40
2010,08,13,03,05,13.30
2010,08,13,03,06,13.30
2010,08,13,03,07,13.30
2010,08,13,03,08,13.30
2010,08,13,03,09,13.20
2010,08,13,03,10,13.20
2010,08,13,03,11,13.20
2010,08,13,03,12,13.20
2010,08,13,03,13,13.20
2010,08,13,03,14,13.20
2010,08,13,03,15,13.10
2010,08,13,03,16,13.10
2010,08,13,03,17,13.10
2010,08,13,03,18,13.10
2010,08,13,03,19,13.10
2010,08,13,03,20,13.10
2010,08,13,03,21,13.00
2010,08,13,03,22,13.00
2010,08,13,03,23,12.90
2010,08,13,03,24,12.90
2010,08,13,03,25,12.80
2010,08,13,03,26,12.80
2010,08,13,03,27,12.80
2010,08,13,03,28,12.80
2010,08,13,03,29,12.70
2010,08,13,03,30,12.70
2010,08,13,03,31,12.70
2010,08,13,03,32,12.70
2010,08,13,03,33,12.70
2010,08,13,03,34,12.70
2010,08,13,03,35,12.70
2010,08,13,03,36,12.60
2010,08,13,03,37,12.60
2010,08,13,03,38,12.60
2010,08,13,03,39,12.60
2010,08,13,03,40,12.60
2010,08,13,03,41,12.60
2010,08,13,03,42,12.60
2010,08,13,03,43,12.60
2010,08,13,03,44,12.60
2010,08,13,03,45,12.60
2010,08,13,03,46,12.60
2010,08,13,03,47,12.60
2010,08,13,03,48,12.50
2010,08,13,03,49,12.50
2010,08,13,03,50,12.50
2010,08,13,03,51,12.50
2010,08,13,03,52,12.50
2010,08,13,03,53,12.50
2010,08,13,03,54,12.40
2010,08,13,03,55,12.40
2010,08,13,03,56,12.40
2010,08,13,03,57,12.40
2010,08,13,03,58,12.40
2010,08,13,03,59,12.50
2010,08,13,04,00,12.50
2010,08,13,04,01,12.50
2010,08,13,04,02,12.50
2010,08,13,04,03,12.50
2010,08,13,04,04,12.50
2010,08,13,04,05,12.50
2010,08,13,04,06,12.50
2010,08,13,04,07,12.50
2010,08,13,04,08,12.60
2010,08,13,04,09,12.60
2010,08,13,04,10,12.60
2010,08,13,04,11,12.60
2010,08,13,04,12,12.70
2010,08,13,04,13,12.70
2010,08,13,04,14,12.70
2010,08,13,04,15,12.70
2010,08,13,04,16,12.70
2010,08,13,04,17,12.70
2010,08,13,04,18,12.70
2010,08,13,04,19,12.70
2010,08,13,04,20,12.70
2010,08,13,04,21,12.70
2010,08,13,04,22,12.70
2010,08,13,04,23,12.70
2010,08,13,04,24,12.70
2010,08,13,04,25,12.70
2010,08,13,04,26,12.70
2010,08,13,04,27,12.70
2010,08,13,04,28,12.70
2010,08,13,04,29,12.70
2010,08,13,04,30,12.60
2010,08,13,04,31,12.60
2010,08,13,04,32,12.60
2010,08,13,04,33,12.60
2010,08,13,04,34,12.50
2010,08,13,04,35,12.50
2010,08,13,04,36,12.40
2010,08,13,04,37,12.40
2010,08,13,04,38,12.40
2010,08,13,04,39,12.40
2010,08,13,04,40,12.30
2010,08,13,04,41,12.30
2010,08,13,04,42,12.30
2010,08,13,04,43,12.30
2010,08,13,04,44,12.30
2010,08,13,04,45,12.30
2010,08,13,04,46,12.30
2010,08,13,04,47,12.30
2010,08,13,04,48,12.30
2010,08,13,04,49,12.30
2010,08,13,04,50,12.30
2010,08,13,04,51,12.30
2010,08,13,04,52,12.30
2010,08,13,04,53,12.30
2010,08,13,04,54,12.40
2010,08,13,04,55,12.40
2010,08,13,04,56,12.40
2010,08,13,04,57,12.40
2010,08,13,04,58,12.40
2010,08,13,04,59,12.40
2010,08,13,05,00,12.40
2010,08,13,05,01,12.40
2010,08,13,05,02,12.40
2010,08,13,05,03,12.40
2010,08,13,05,04,12.40
2010,08,13,05,05,12.40
2010,08,13,05,06,12.40
2010,08,13,05,07,12.40
2010,08,13,05,08,12.40
2010,08,13,05,09,12.40
2010,08,13,05,10,12.30
2010,08,13,05,11,12.30
2010,08,13,05,12,12.30
2010,08,13,05,13,12.30
2010,08,13,05,14,12.30
2010,08,13,05,15,12.30
2010,08,13,05,16,12.20
2010,08,13,05,17,12.20
2010,08,13,05,18,12.10
2010,08,13,05,19,12.10
2010,08,13,05,20,12.00
2010,08,13,05,21,11.90
2010,08,13,05,22,11.90
2010,08,13,05,23,11.90
2010,08,13,05,24,11.80
2010,08,13,05,25,11.80
2010,08,13,05,26,11.80
2010,08,13,05,27,11.80
2010,08,13,05,28,11.70
2010,08,13,05,29,11.70
2010,08,13,05,30,11.70
2010,08,13,05,31,11.70
2010,08,13,05,32,11.70
2010,08,13,05,33,11.70
2010,08,13,05,34,11.70
2010,08,13,05,35,11.70
2010,08,13,05,36,11.70
2010,08,13,05,37,11.70
2010,08,13,05,38,11.70
2010,08,13,05,39,11.70
2010,08,13,05,40,11.70
2010,08,13,05,41,11.70
2010,08,13,05,42,11.70
2010,08,13,05,43,11.70
2010,08,13,05,44,11.70
2010,08,13,05,45,11.70
2010,08,13,05,46,11.70
2010,08,13,05,47,11.70
2010,08,13,05,48,11.70
2010,08,13,05,49,11.70
2010,08,13,05,50,11.70
2010,08,13,05,51,11.70
2010,08,13,05,52,11.70
2010,08,13,05,53,11.70
2010,08,13,05,54,11.80
2010,08,13,05,55,11.80
2010,08,13,05,56,11.80
2010,08,13,05,57,11.80
2010,08,13,05,58,11.80
2010,08,13,05,59,11.80
2010,08,13,06,00,11.80
2010,08,13,06,01,11.80
2010,08,13,06,02,11.80
2010,08,13,06,03,11.80
2010,08,13,06,04,11.80
2010,08,13,06,05,11.80
2010,08,13,06,06,11.80
2010,08,13,06,07,11.80
2010,08,13,06,08,11.80
2010,08,13,06,09,11.80
2010,08,13,06,10,11.70
2010,08,13,06,11,11.60
2010,08,13,06,12,11.60
2010,08,13,06,13,11.60
2010,08,13,06,14,11.60
2010,08,13,06,15,11.60
2010,08,13,06,16,11.50
2010,08,13,06,17,11.50
2010,08,13,06,18,11.50
2010,08,13,06,19,11.50
2010,08,13,06,20,11.60
2010,08,13,06,21,11.60
2010,08,13,06,22,11.60
2010,08,13,06,23,11.60
2010,08,13,06,24,11.60
2010,08,13,06,25,11.70
2010,08,13,06,26,11.70
2010,08,13,06,27,11.70
2010,08,13,06,28,11.80
2010,08,13,06,29,11.80
2010,08,13,06,30,11.80
2010,08,13,06,31,11.80
2010,08,13,06,32,11.80
2010,08,13,06,33,11.90
2010,08,13,06,34,11.90
2010,08,13,06,35,11.90
2010,08,13,06,36,11.90
2010,08,13,06,37,12.00
2010,08,13,06,38,12.00
2010,08,13,06,39,12.10
2010,08,13,06,40,12.10
2010,08,13,06,41,12.20
2010,08,13,06,42,12.20
2010,08,13,06,43,12.20
2010,08,13,06,44,12.20
2010,08,13,06,45,12.30
2010,08,13,06,46,12.30
2010,08,13,06,47,12.30
2010,08,13,06,48,12.40
2010,08,13,06,49,12.40
2010,08,13,06,50,12.50
2010,08,13,06,51,12.50
2010,08,13,06,52,12.60
2010,08,13,06,53,12.70
2010,08,13,06,54,12.70
2010,08,13,06,55,12.80
2010,08,13,06,56,12.80
2010,08,13,06,57,12.90
2010,08,13,06,58,13.00
2010,08,13,06,59,13.10
2010,08,13,07,00,13.10
2010,08,13,07,01,13.20
2010,08,13,07,02,13.20
2010,08,13,07,03,13.20
2010,08,13,07,04,13.20
2010,08,13,07,05,13.20
2010,08,13,07,06,13.20
2010,08,13,07,07,13.20
2010,08,13,07,08,13.20
2010,08,13,07,09,13.20
2010,08,13,07,10,13.10
2010,08,13,07,11,13.10
2010,08,13,07,12,13.10
2010,08,13,07,13,13.10
2010,08,13,07,14,13.10
2010,08,13,07,15,13.10
2010,08,13,07,16,13.10
2010,08,13,07,17,13.10
2010,08,13,07,18,13.10
2010,08,13,07,19,13.20
2010,08,13,07,20,13.20
2010,08,13,07,21,13.20
2010,08,13,07,22,13.20
2010,08,13,07,23,13.30
2010,08,13,07,24,13.30
2010,08,13,07,25,13.30
2010,08,13,07,26,13.40
2010,08,13,07,27,13.50
2010,08,13,07,28,13.60
2010,08,13,07,29,13.70
2010,08,13,07,30,13.80
2010,08,13,07,31,13.80
2010,08,13,07,32,13.90
2010,08,13,07,33,14.00
2010,08,13,07,34,14.10
2010,08,13,07,35,14.10
2010,08,13,07,36,14.20
2010,08,13,07,37,14.30
2010,08,13,07,38,14.40
2010,08,13,07,39,14.50
2010,08,13,07,40,14.60
2010,08,13,07,41,14.70
2010,08,13,07,42,14.70
2010,08,13,07,43,14.80
2010,08,13,07,44,14.90
2010,08,13,07,45,14.90
2010,08,13,07,46,15.00
2010,08,13,07,47,15.00
2010,08,13,07,48,15.10
2010,08,13,07,49,15.10
2010,08,13,07,50,15.20
2010,08,13,07,51,15.20
2010,08,13,07,52,15.30
2010,08,13,07,53,15.40
2010,08,13,07,54,15.50
2010,08,13,07,55,15.60
2010,08,13,07,56,15.70
2010,08,13,07,57,15.80
2010,08,13,07,58,15.90
2010,08,13,07,59,16.00
2010,08,13,08,00,16.10
2010,08,13,08,01,16.10
2010,08,13,08,02,16.20
2010,08,13,08,03,16.30
2010,08,13,08,04,16.40
2010,08,13,08,05,16.50
2010,08,13,08,06,16.60
2010,08,13,08,07,16.70
2010,08,13,08,08,16.80
2010,08,13,08,09,16.80
2010,08,13,08,10,16.90
2010,08,13,08,11,16.90
2010,08,13,08,12,16.90
2010,08,13,08,13,17.00
2010,08,13,08,14,17.00
2010,08,13,08,15,17.00
2010,08,13,08,16,17.10
2010,08,13,08,17,17.10
2010,08,13,08,18,17.10
2010,08,13,08,19,17.20
2010,08,13,08,20,17.20
2010,08,13,08,21,17.30
2010,08,13,08,22,17.30
2010,08,13,08,23,17.40
2010,08,13,08,24,17.50
2010,08,13,08,25,17.60
2010,08,13,08,26,17.70
2010,08,13,08,27,17.70
2010,08,13,08,28,17.80
2010,08,13,08,29,17.80
2010,08,13,08,30,17.90
2010,08,13,08,31,18.00
2010,08,13,08,32,18.10
2010,08,13,08,33,18.20
2010,08,13,08,34,18.20
2010,08,13,08,35,18.30
2010,08,13,08,36,18.40
2010,08,13,08,37,18.40
2010,08,13,08,38,18.50
2010,08,13,08,39,18.60
2010,08,13,08,40,18.70
2010,08,13,08,41,18.80
2010,08,13,08,42,19.00
2010,08,13,08,43,19.10
2010,08,13,08,44,19.30
2010,08,13,08,45,19.40
2010,08,13,08,46,19.60
2010,08,13,08,47,19.70
2010,08,13,08,48,19.80
2010,08,13,08,49,19.90
2010,08,13,08,50,19.90
2010,08,13,08,51,20.00
2010,08,13,08,52,20.00
2010,08,13,08,53,20.10
2010,08,13,08,54,20.10
2010,08,13,08,55,20.20
2010,08,13,08,56,20.20
2010,08,13,08,57,20.30
2010,08,13,08,58,20.40
2010,08,13,08,59,20.50
2010,08,13,09,00,20.60
2010,08,13,09,01,20.60
2010,08,13,09,02,20.60
2010,08,13,09,03,20.70
2010,08,13,09,04,20.70
2010,08,13,09,05,20.70
2010,08,13,09,06,20.60
2010,08,13,09,07,20.70
2010,08,13,09,08,20.70
2010,08,13,09,09,20.80
2010,08,13,09,10,20.80
2010,08,13,09,11,20.90
2010,08,13,09,12,20.90
2010,08,13,09,13,20.80
2010,08,13,09,14,20.80
2010,08,13,09,15,20.80
2010,08,13,09,16,20.90
2010,08,13,09,17,20.90
2010,08,13,09,18,21.00
2010,08,13,09,19,21.00
2010,08,13,09,20,21.10
2010,08,13,09,21,21.10
2010,08,13,09,22,21.20
2010,08,13,09,23,21.20
2010,08,13,09,24,21.20
2010,08,13,09,25,21.20
2010,08,13,09,26,21.20
2010,08,13,09,27,21.30
2010,08,13,09,28,21.30
2010,08,13,09,29,21.40
2010,08,13,09,30,21.40
2010,08,13,09,31,21.50
2010,08,13,09,32,21.60
2010,08,13,09,33,21.70
2010,08,13,09,34,21.80
2010,08,13,09,35,21.80
2010,08,13,09,36,21.90
2010,08,13,09,37,21.90
2010,08,13,09,38,21.80
2010,08,13,09,39,21.90
2010,08,13,09,40,21.90
2010,08,13,09,41,21.90
2010,08,13,09,42,21.90
2010,08,13,09,43,21.80
2010,08,13,09,44,21.80
2010,08,13,09,45,21.80
2010,08,13,09,46,21.90
2010,08,13,09,47,22.00
2010,08,13,09,48,22.10
2010,08,13,09,49,22.00
2010,08,13,09,50,21.90
2010,08,13,09,51,21.90
2010,08,13,09,52,21.90
2010,08,13,09,53,22.00
2010,08,13,09,54,22.00
2010,08,13,09,55,22.10
2010,08,13,09,56,22.10
2010,08,13,09,57,22.20
2010,08,13,09,58,22.20
2010,08,13,09,59,22.20
2010,08,13,10,00,22.30
2010,08,13,10,01,22.30
2010,08,13,10,02,22.30
2010,08,13,10,03,22.30
2010,08,13,10,04,22.30
2010,08,13,10,05,22.30
2010,08,13,10,06,22.20
2010,08,13,10,07,22.20
2010,08,13,10,08,22.10
2010,08,13,10,09,22.10
2010,08,13,10,10,22.20
2010,08,13,10,11,22.20
2010,08,13,10,12,22.20
2010,08,13,10,13,22.30
2010,08,13,10,14,22.30
2010,08,13,10,15,22.30
2010,08,13,10,16,22.30
2010,08,13,10,17,22.30
2010,08,13,10,18,22.20
2010,08,13,10,19,22.20
2010,08,13,10,20,22.20
2010,08,13,10,21,22.20
2010,08,13,10,22,22.20
2010,08,13,10,23,22.10
2010,08,13,10,24,22.10
2010,08,13,10,25,22.10
2010,08,13,10,26,22.10
2010,08,13,10,27,22.20
2010,08,13,10,28,22.30
2010,08,13,10,29,22.40
2010,08,13,10,30,22.50
2010,08,13,10,31,22.50
2010,08,13,10,32,22.50
2010,08,13,10,33,22.60
2010,08,13,10,34,22.60
2010,08,13,10,35,22.60
2010,08,13,10,36,22.70
2010,08,13,10,37,22.80
2010,08,13,10,38,22.90
2010,08,13,10,39,23.00
2010,08,13,10,40,23.10
2010,08,13,10,41,23.20
2010,08,13,10,42,23.20
2010,08,13,10,43,23.20
2010,08,13,10,44,23.30
2010,08,13,10,45,23.30
2010,08,13,10,46,23.30
2010,08,13,10,47,23.30
2010,08,13,10,48,23.30
2010,08,13,10,49,23.30
2010,08,13,10,50,23.40
2010,08,13,10,51,23.40
2010,08,13,10,52,23.40
2010,08,13,10,53,23.50
2010,08,13,10,54,23.50
2010,08,13,10,55,23.60
2010,08,13,10,56,23.60
2010,08,13,10,57,23.60
2010,08,13,10,58,23.50
2010,08,13,10,59,23.50
2010,08,13,11,00,23.50
2010,08,13,11,01,23.50
2010,08,13,11,02,23.40
2010,08,13,11,03,23.50
2010,08,13,11,04,23.60
2010,08,13,11,05,23.70
2010,08,13,11,06,23.80
2010,08,13,11,07,23.70
2010,08,13,11,08,23.70
2010,08,13,11,09,23.60
2010,08,13,11,10,23.60
2010,08,13,11,11,23.60
2010,08,13,11,12,23.50
2010,08,13,11,13,23.50
2010,08,13,11,14,23.50
2010,08,13,11,15,23.50
2010,08,13,11,16,23.60
2010,08,13,11,17,23.70
2010,08,13,11,18,23.70
2010,08,13,11,19,23.70
2010,08,13,11,20,23.70
2010,08,13,11,21,23.70
2010,08,13,11,22,23.70
2010,08,13,11,23,23.70
2010,08,13,11,24,23.70
2010,08,13,11,25,23.80
2010,08,13,11,26,23.90
2010,08,13,11,27,23.90
2010,08,13,11,28,24.00
2010,08,13,11,29,24.00
2010,08,13,11,30,24.10
2010,08,13,11,31,24.20
2010,08,13,11,32,24.30
2010,08,13,11,33,24.30
2010,08,13,11,34,24.20
2010,08,13,11,35,24.10
2010,08,13,11,36,24.10
2010,08,13,11,37,24.00
2010,08,13,11,38,24.00
2010,08,13,11,39,23.90
2010,08,13,11,40,23.90
2010,08,13,11,41,23.90
2010,08,13,11,42,23.80
2010,08,13,11,43,23.70
2010,08,13,11,44,23.70
2010,08,13,11,45,23.80
2010,08,13,11,46,23.80
2010,08,13,11,47,23.90
2010,08,13,11,48,23.90
2010,08,13,11,49,23.90
2010,08,13,11,50,24.00
2010,08,13,11,51,24.10
2010,08,13,11,52,24.10
2010,08,13,11,53,24.20
2010,08,13,11,54,24.30
2010,08,13,11,55,24.40
2010,08,13,11,56,24.30
2010,08,13,11,57,24.40
2010,08,13,11,58,24.50
2010,08,13,11,59,24.60
2010,08,13,12,00,24.80
2010,08,13,12,01,24.80
2010,08,13,12,02,24.80
2010,08,13,12,03,24.80
2010,08,13,12,04,24.80
2010,08,13,12,05,24.80
2010,08,13,12,06,24.80
2010,08,13,12,07,24.90
2010,08,13,12,08,25.00
2010,08,13,12,09,25.10
2010,08,13,12,10,25.20
2010,08,13,12,11,25.20
2010,08,13,12,12,25.20
2010,08,13,12,13,25.20
2010,08,13,12,14,25.20
2010,08,13,12,15,25.10
2010,08,13,12,16,25.10
2010,08,13,12,17,25.00
2010,08,13,12,18,25.00
2010,08,13,12,19,24.90
2010,08,13,12,20,24.90
2010,08,13,12,21,24.90
2010,08,13,12,22,24.90
2010,08,13,12,23,25.00
2010,08,13,12,24,25.00
2010,08,13,12,25,25.10
2010,08,13,12,26,25.20
2010,08,13,12,27,25.30
2010,08,13,12,28,25.40
2010,08,13,12,29,25.40
2010,08,13,12,30,25.50
2010,08,13,12,31,25.60
2010,08,13,12,32,25.60
2010,08,13,12,33,25.70
2010,08,13,12,34,25.70
2010,08,13,12,35,25.70
2010,08,13,12,36,25.60
2010,08,13,12,37,25.60
2010,08,13,12,38,25.60
2010,08,13,12,39,25.70
2010,08,13,12,40,25.70
2010,08,13,12,41,25.70
2010,08,13,12,42,25.70
2010,08,13,12,43,25.70
2010,08,13,12,44,25.80
2010,08,13,12,45,25.80
2010,08,13,12,46,25.90
2010,08,13,12,47,26.00
2010,08,13,12,48,26.00
2010,08,13,12,49,25.90
2010,08,13,12,50,26.00
2010,08,13,12,51,26.10
2010,08,13,12,52,26.10
2010,08,13,12,53,26.10
2010,08,13,12,54,26.10
2010,08,13,12,55,26.20
2010,08,13,12,56,26.30
2010,08,13,12,57,26.40
2010,08,13,12,58,26.50
2010,08,13,12,59,26.70
2010,08,13,13,00,26.80
2010,08,13,13,01,26.80
2010,08,13,13,02,26.80
2010,08,13,13,03,26.80
2010,08,13,13,04,26.90
2010,08,13,13,05,26.90
2010,08,13,13,06,26.90
2010,08,13,13,07,26.90
2010,08,13,13,08,26.90
2010,08,13,13,09,26.90
2010,08,13,13,10,26.80
2010,08,13,13,11,26.80
2010,08,13,13,12,26.80
2010,08,13,13,13,26.80
2010,08,13,13,14,26.90
2010,08,13,13,15,26.90
2010,08,13,13,16,26.90
2010,08,13,13,17,26.80
2010,08,13,13,18,26.80
2010,08,13,13,19,26.70
2010,08,13,13,20,26.70
2010,08,13,13,21,26.70
2010,08,13,13,22,26.60
2010,08,13,13,23,26.60
2010,08,13,13,24,26.70
2010,08,13,13,25,26.80
2010,08,13,13,26,26.80
2010,08,13,13,27,26.80
2010,08,13,13,28,26.90
2010,08,13,13,29,27.00
2010,08,13,13,30,27.00
2010,08,13,13,31,27.00
2010,08,13,13,32,27.10
2010,08,13,13,33,27.10
2010,08,13,13,34,27.20
2010,08,13,13,35,27.20
2010,08,13,13,36,27.20
2010,08,13,13,37,27.20
2010,08,13,13,38,27.20
2010,08,13,13,39,27.10
2010,08,13,13,40,27.10
2010,08,13,13,41,27.20
2010,08,13,13,42,27.20
2010,08,13,13,43,27.20
2010,08,13,13,44,27.20
2010,08,13,13,45,27.20
2010,08,13,13,46,27.20
2010,08,13,13,47,27.10
2010,08,13,13,48,27.10
2010,08,13,13,49,27.10
2010,08,13,13,50,27.10
2010,08,13,13,51,27.10
2010,08,13,13,52,27.20
2010,08,13,13,53,27.40
2010,08,13,13,54,27.50
2010,08,13,13,55,27.60
2010,08,13,13,56,27.60
2010,08,13,13,57,27.60
2010,08,13,13,58,27.60
2010,08,13,13,59,27.70
2010,08,13,14,00,27.70
2010,08,13,14,01,27.70
2010,08,13,14,02,27.70
2010,08,13,14,03,27.70
2010,08,13,14,04,27.80
2010,08,13,14,05,27.80
2010,08,13,14,06,27.80
2010,08,13,14,07,27.80
2010,08,13,14,08,27.80
2010,08,13,14,09,27.80
2010,08,13,14,10,27.90
2010,08,13,14,11,28.00
2010,08,13,14,12,28.00
2010,08,13,14,13,28.10
2010,08,13,14,14,28.20
2010,08,13,14,15,28.30
2010,08,13,14,16,28.30
2010,08,13,14,17,28.50
2010,08,13,14,18,28.50
2010,08,13,14,19,28.60
2010,08,13,14,20,28.60
2010,08,13,14,21,28.60
2010,08,13,14,22,28.50
2010,08,13,14,23,28.50
2010,08,13,14,24,28.40
2010,08,13,14,25,28.40
2010,08,13,14,26,28.50
2010,08,13,14,27,28.50
2010,08,13,14,28,28.50
2010,08,13,14,29,28.50
2010,08,13,14,30,28.50
2010,08,13,14,31,28.40
2010,08,13,14,32,28.40
2010,08,13,14,33,28.50
2010,08,13,14,34,28.60
2010,08,13,14,35,28.70
2010,08,13,14,36,28.70
2010,08,13,14,37,28.60
2010,08,13,14,38,28.60
2010,08,13,14,39,28.60
2010,08,13,14,40,28.70
2010,08,13,14,41,28.70
2010,08,13,14,42,28.70
2010,08,13,14,43,28.70
2010,08,13,14,44,28.80
2010,08,13,14,45,28.80
2010,08,13,14,46,28.80
2010,08,13,14,47,28.80
2010,08,13,14,48,28.80
2010,08,13,14,49,28.80
2010,08,13,14,50,28.80
2010,08,13,14,51,28.80
2010,08,13,14,52,28.90
2010,08,13,14,53,29.00
2010,08,13,14,54,29.00
2010,08,13,14,55,29.10
2010,08,13,14,56,29.20
2010,08,13,14,57,29.20
2010,08,13,14,58,29.30
2010,08,13,14,59,29.30
2010,08,13,15,00,29.30
2010,08,13,15,01,29.30
2010,08,13,15,02,29.30
2010,08,13,15,03,29.30
2010,08,13,15,04,29.30
2010,08,13,15,05,29.30
2010,08,13,15,06,29.20
2010,08,13,15,07,29.10
2010,08,13,15,08,29.20
2010,08,13,15,09,29.20
2010,08,13,15,10,29.20
2010,08,13,15,11,29.20
2010,08,13,15,12,29.20
2010,08,13,15,13,29.40
2010,08,13,15,14,29.50
2010,08,13,15,15,29.70
2010,08,13,15,16,29.80
2010,08,13,15,17,29.80
2010,08,13,15,18,29.80
2010,08,13,15,19,29.90
2010,08,13,15,20,30.00
2010,08,13,15,21,30.00
2010,08,13,15,22,30.00
2010,08,13,15,23,30.10
2010,08,13,15,24,30.10
2010,08,13,15,25,30.10
2010,08,13,15,26,30.00
2010,08,13,15,27,29.90
2010,08,13,15,28,29.90
2010,08,13,15,29,29.90
2010,08,13,15,30,30.00
2010,08,13,15,31,30.10
2010,08,13,15,32,30.10
2010,08,13,15,33,30.20
2010,08,13,15,34,30.20
2010,08,13,15,35,30.20
2010,08,13,15,36,30.20
2010,08,13,15,37,30.30
2010,08,13,15,38,30.30
2010,08,13,15,39,30.30
2010,08,13,15,40,30.20
2010,08,13,15,41,30.20
2010,08,13,15,42,30.20
2010,08,13,15,43,30.30
2010,08,13,15,44,30.30
2010,08,13,15,45,30.20
2010,08,13,15,46,30.20
2010,08,13,15,47,30.20
2010,08,13,15,48,30.30
2010,08,13,15,49,30.30
2010,08,13,15,50,30.30
2010,08,13,15,51,30.30
2010,08,13,15,52,30.20
2010,08,13,15,53,30.10
2010,08,13,15,54,30.10
2010,08,13,15,55,30.10
2010,08,13,15,56,30.10
2010,08,13,15,57,30.20
2010,08,13,15,58,30.30
2010,08,13,15,59,30.40
2010,08,13,16,00,30.50
2010,08,13,16,01,30.50
2010,08,13,16,02,30.60
2010,08,13,16,03,30.50
2010,08,13,16,04,30.50
2010,08,13,16,05,30.50
2010,08,13,16,06,30.50
2010,08,13,16,07,30.40
2010,08,13,16,08,30.50
2010,08,13,16,09,30.50
2010,08,13,16,10,30.40
2010,08,13,16,11,30.40
2010,08,13,16,12,30.40
2010,08,13,16,13,30.50
2010,08,13,16,14,30.50
2010,08,13,16,15,30.50
2010,08,13,16,16,30.60
2010,08,13,16,17,30.60
2010,08,13,16,18,30.60
2010,08,13,16,19,30.50
2010,08,13,16,20,30.50
2010,08,13,16,21,30.50
2010,08,13,16,22,30.50
2010,08,13,16,23,30.60
2010,08,13,16,24,30.70
2010,08,13,16,25,30.80
2010,08,13,16,26,31.00
2010,08,13,16,27,31.10
2010,08,13,16,28,31.20
2010,08,13,16,29,31.20
2010,08,13,16,30,31.20
2010,08,13,16,31,31.10
2010,08,13,16,32,31.10
2010,08,13,16,33,31.00
2010,08,13,16,34,30.90
2010,08,13,16,35,30.80
2010,08,13,16,36,30.70
2010,08,13,16,37,30.60
2010,08,13,16,38,30.60
2010,08,13,16,39,30.50
2010,08,13,16,40,30.40
2010,08,13,16,41,30.40
2010,08,13,16,42,30.40
2010,08,13,16,43,30.40
2010,08,13,16,44,30.40
2010,08,13,16,45,30.50
2010,08,13,16,46,30.50
2010,08,13,16,47,30.50
2010,08,13,16,48,30.50
2010,08,13,16,49,30.50
2010,08,13,16,50,30.60
2010,08,13,16,51,30.60
2010,08,13,16,52,30.70
2010,08,13,16,53,30.70
2010,08,13,16,54,30.70
2010,08,13,16,55,30.80
2010,08,13,16,56,30.80
2010,08,13,16,57,30.80
2010,08,13,16,58,30.80
2010,08,13,16,59,30.80
2010,08,13,17,00,30.70
2010,08,13,17,01,30.50
2010,08,13,17,02,30.30
2010,08,13,17,03,30.20
2010,08,13,17,04,30.10
2010,08,13,17,05,30.00
2010,08,13,17,06,29.90
2010,08,13,17,07,29.80
2010,08,13,17,08,29.80
2010,08,13,17,09,29.80
2010,08,13,17,10,29.70
2010,08,13,17,11,29.70
2010,08,13,17,12,29.60
2010,08,13,17,13,29.60
2010,08,13,17,14,29.50
2010,08,13,17,15,29.50
2010,08,13,17,16,29.40
2010,08,13,17,17,29.50
2010,08,13,17,18,29.50
2010,08,13,17,19,29.60